Volver al catálogo

STARLINK-34180

ActivoComunicacionesVLEO
NORAD 64081·PAYLOAD·🇺🇸 United States

Lanzado May 21, 2025 desde Cape Canaveral Space Force Station

Loading…

Próximos Pases (próximas 24 horas)

TLE

ActualizadoSource: CelesTrak SupGP

Época: Sep 14, 2026, 21:01 UTC

1 64081C 25107T   26257.87618056  .00036291  00000+0  13143-2 0  2578
2 64081  43.0016 213.2218 0001392 261.7365  73.0412 15.27563949    18

Sigue STARLINK-34180 en tiempo real con AllMySat

Download on the App Store